Tracking 31027 objects as of 19-Jul-2025
HD Live streaming from Space Station
objects crossing your sky now

DMSP 5D-2 F13 DEB

Track DMSP 5D-2 F13 DEB now!
10-day predictions


NORAD ID: 42280
Int'l Code: 1995-015GW
Perigee: 467.9 km
Apogee: 482.2 km
Inclination: 98.7 °
Period: 94.0 minutes
Semi major axis: 6846 km
RCS: Unknown
Launch date: March 24, 1995
Source: United States (US)
Launch site: AIR FORCE WESTERN TEST RANGE (AFWTR)

Note: This is SATELLITE DEBRIS
Your satellite tracking list
GALASSIA
Track 1 satellite(s)




NASA's NSSDC Master Catalog

Two Line Element Set (TLE):
1 42280U 95015GW  25199.46253790  .00397063  00000-0  11949-1 0  9991
2 42280  98.7231 290.3261 0010425 247.8129 112.2003 15.32643496534808
Source of the keplerian elements: AFSPC